Location: Perryvale
(54.4667°N, 113.3833°W)
Time: 19:24:15
(UTC+00:00)

Transit 2A - Pass Details

Date: 20 May 2024
Orbit: 592 x 959 km, 66.7° (Epoch: 19 June)

Event Time Altitude Azimuth Distance (km) Brightness Sun altitude
Exits shadow 07:41:20 17° 224° (SW) 1,678 7.3 -15.4°
Maximum altitude 07:45:01 84° 313° (NW) 726 5.9 -15.4°
Drops below altitude 10° 07:50:20 10° 42° (NE) 2,335 9.3 -15.3°
Sets 07:52:53 0° 43° (NE) 3,329 10.2 -15.3°
